STARLINK-4512 (53398 NORAD) Tracking and Keplerian Element Data

This shows tracking and keplerian element data for the satellite.

Feedback or suggestion? Click here.




ElementValue
Catalog53398
NameSTARLINK-4512
Epoch Orbit789
Epoch Day270.25001157
Epoch Year2022
RAAN17.9501
Inclination53.2189
Eccentricity0.0001582
Argument of Perigee58.2458
Mean Anonmoly265.0552
Mean Motion15.08808908
Decay Rate0.00038159
L11 53398U 22097L 22270.25001157 .00038159 00000+0 24048-2 0 9997
L22 53398 53.2189 17.9501 0001582 58.2458 265.0552 15.08808908 7895

Live tracking and technical data element details for STARLINK-4512 (NORAD 53398). STARLINK-4512 can be tracked NOW for your location showing map with azimuth and elevation plus other details from your city location.

Track the satellite on the map from your city or location and see movement details for azimuth, elevation, latitude, longitude, range, height, and movement on the map or in text.







IsCatalogInMostPopularTable: catalog: 53398, numindb: 2
Update: records affected: 1



GetName: 53398 STARLINK-4512

Hit Count: updated at: Fri, 30 Sep 2022 03:17:29 GMT